Home   Weather   Sherbrooke   Past weeks

Flag for Canada Past Weather in Sherbrooke, Quebec, Canada — Yesterday and Last 2 Weeks

Now
41 °F

Sunny.


Feels Like: 36 °F
Forecast: 41 / 62 °F
Wind: 7 mph from East

Location: Sherbrooke

Current Time: Sep 29, 2016 at 7:56:13 AM

Latest Report: Sep 29, 2016 at 7:00 AM


Visibility: 9 mi

Pressure: 30.52 "Hg

Humidity: 93%

Dew Point: 39 °F

Location of SherbrookeLocation

Past Weather in Sherbrooke — Graph

°F

Sherbrooke Temperature Yesterday

Maximum temperature yesterday: 63 °F (at 2:00 PM)
Minimum temperature yesterday: 48 °F (at 6:00 AM)
Average temperature yesterday: 54 °F

High & Low Weather Summary for the Past Weeks

 TemperatureHumidityPressure
High77 °F (Sep 20, 2:00 PM)100% (Sep 14, 11:00 AM)30.50 "Hg (Sep 14, 11:00 AM)
Low30 °F (Sep 26, 4:00 AM)41% (Sep 24, 5:00 PM)29.86 "Hg (Sep 27, 5:04 AM)
Average56 °F83%30.11 "Hg
* Reported Sep 14 6:00 AM — Sep 29 6:00 AM, Sherbrooke, Weather by CustomWeather, © 2016

Note: Actual official high and low records may vary slightly from our data, if they occured in-between our weather recording intervals... More about our weather records

Advertising

Sherbrooke Weather History for the Previous 24 Hours

Scroll right to see more
 ConditionsComfort  
Time TempWeatherWind HumidityBarometerVisibility
6:00 AM
Thu, Sep 29
41 °FClear.5 mph100%30.50 "Hg9 mi
5:00 AM43 °FClear.7 mph93%30.48 "Hg9 mi
4:00 AM45 °FClear.9 mph93%30.46 "Hg9 mi
3:00 AM45 °FClear.8 mph93%30.45 "Hg9 mi
2:00 AM45 °FClear.8 mph93%30.45 "Hg9 mi
1:00 AM46 °FClear.6 mph93%30.45 "Hg9 mi
12:00 AM46 °FClear.7 mph93%30.45 "Hg9 mi
11:00 PM
Wed, Sep 28
48 °FClear.5 mph87%30.45 "Hg9 mi
10:00 PM48 °FClear.6 mph94%30.42 "Hg9 mi
9:00 PM52 °FClear.8 mph88%30.40 "Hg9 mi
8:00 PM55 °FOvercast.8 mph82%30.37 "Hg9 mi
7:00 PM57 °FPassing clouds.6 mph77%30.34 "Hg9 mi
6:00 PM61 °FPassing clouds.6 mph72%30.33 "Hg9 mi
5:00 PM63 °FScattered clouds.7 mph68%30.30 "Hg9 mi
4:00 PM63 °FSunny.7 mph68%30.29 "Hg9 mi
3:00 PM63 °FPartly sunny.10 mph68%30.29 "Hg9 mi
2:00 PM63 °FPassing clouds.10 mph68%30.29 "Hg9 mi
1:00 PM59 °FOvercast.8 mph77%30.29 "Hg9 mi
12:00 PM59 °FMostly cloudy.12 mph82%30.29 "Hg9 mi
11:00 AM57 °FMostly cloudy.6 mph88%30.28 "Hg9 mi
10:00 AM54 °FOvercast.8 mph94%30.26 "Hg9 mi
9:00 AM52 °FMostly cloudy.6 mph94%30.24 "Hg9 mi
8:00 AM52 °FMostly cloudy.7 mph94%30.22 "Hg9 mi
7:00 AM48 °FMore clouds than sun.9 mph100%30.19 "Hg8 mi
Weather by CustomWeather, © 2016

See weather overviewHow to use our weather pages